GSAT-10 (GAGAN/PRN 128)

Last updated on Sun Oct 19 2025 00:03:28 GMT+0000 (Coordinated Universal Time)

1 38779U 12051B 25291.18655880 -.00000172 00000+0 00000+0 0 9992 2 38779 0.0563 265.7207 0004477 223.4428 47.9493 1.00271474 47672
UTC large
Height (km)
Speed (km/s)
/
Latitude / Longitude
Inclination (degrees)
Orbital Period (minutes)
Azimuth
Elevation
Range (km)
Doppler Factor

Next 0 passes for location: London (51.5072 / 0.1276)

Sorry there are no passes over London.